sat.trackr.live / text

‹ back to catalog

YAHSAT 1A

NORAD 37393 · 2011-016B

PAYLOAD ACTIVE UNKNOWN

§ Identity

Operator
Country
UAE
Launch date
2011-04-22
Launch site
FRGUI
Launch vehicle
Mass (kg)
RCS (m²)
31.62

Purposes: comms

External: N2YO · Heavens-Above · Gunter

§ Orbital elements

Epoch: 2026-05-25T03:59:38.323392Z

Period
1,436.12 min
Inclination
0.0123°
Eccentricity
0.0003228
Mean motion
1.00270319 rev/d
Perigee alt
35,773.4 km
Apogee alt
35,800.6 km
Semi-major
42,165.1 km
B*
0.0000e+0
RAAN
319.4932°
Arg perigee
112.6785°
Mean anomaly
282.9911°
Rev number
4,217

§ Raw data

YAHSAT 1A1 37393U 11016B   26145.16641578  .00000000  00000+0  00000+0 0  99982 37393   0.0123 319.4932 0003228 112.6785 282.9911  1.00270319 42178

JSON: /api/v1/satellites/37393 · /tle

For live sub-satellite position, see the globe view (requires WebGL).

§ Visibility from observer

Set your observer location to see the next 7 days of passes ≥ 10°. The values pass through the URL so the page stays shareable.

No JS? Fill the form by hand. The geolocation button needs JavaScript.